星链-30578 (STARLINK-30578 )

导读

STARLINK-30578是美国(US)SpaceX星链项目的卫星,于2023年10月18日发射升空,隶属于第二代星链星座,旨在为全球用户提供低延迟、高速率的宽带互联网接入服务。星链项目通过批量发射低轨卫星组网,持续扩充星座规模,该卫星入轨后进一步提升了星链系统的服务覆盖能力与网络稳定性。

Basic Information
目录编号:
58093
目录名称:
STARLINK-30578
国际标识:
2023-160U
轨道中心:
EARTH
卫星名称:
星链-30578
卫星全名:
星链-30578 (STARLINK-30578 )
卫星状态:
在轨 (已飞行1052 天)
发射日期:
2023-10-18 UTC
国别 :
美国 (US)
星等 :
--
Orbit Information
数据来源 国际轨道数据
星历时间: 2026-09-04T10:30:57+0800
6小时前
查看轨道信息
半长轴: 6861.205km
偏心率: 0.0000935
轨道倾角: 43.001°
近地点辐角 257.782°
升交点赤经 150.153°
平近点角 102.293°
近地点: 482.426km
远地点: 483.71km
周期: 94.267分钟
每日圈数: 15.27574
Detailed Information
固有亮度:
5
最大亮度:
0.3
卫星平台:
Starlink v2.0 mini
覆盖范围:
全球
运营商:
太空探索技术公司
运营商所在国:
美国
制造商(研发单位):
太空探索技术公司
制造商所在国:
美国
使用方式:
暂无
Satellite Introduction
星链(Starlink)计划是由太空探索技术公司(SpaceX)提出的一个巨型低轨卫星互联网星座项目,计划在2019年至2024年间在太空搭建由约1.2万颗卫星组成的“星链”网络,其中1584颗将部署在地球上空550千米处的近地轨道,并从2020年开始工作。该卫星仍在工作。
2D Orbit Map
3D Orbit Map
Orbit Altitude Analysis Chart
Orbit Inclination Analysis Chart
Orbit Comprehensive Analysis Chart
View Comprehensive Chart
Conjunction Data List
Event ID Objects TCA Miss Dist (km) Collision Risk Probability Collision Risk Index (CRI) Action
CDM_260904-021705-809306-396021
2026-09-04T
02:17:58+0000
0.578 km
远距离
9.710991E-5 中风险 0.75
CDM_260903-163305-809306-393021
2026-09-03T
16:33:36+0000
0.803 km
远距离
2.654636E-5 中风险 0.63
CDM_260904-232905-809306-396021
2026-09-04T
23:29:03+0000
1.085 km
极远距离
1.311094E-5 中风险 0.57
CDM_260905-003101-051705-809321
2026-09-05T
00:31:56+0000
1.190 km
极远距离
1.04254E-5 中风险 0.55
CDM_260904-035205-809306-396021
2026-09-04T
03:52:07+0000
1.193 km
极远距离
9.436481E-6 低风险 0.54
CDM_260905-010305-809306-396021
2026-09-05T
01:03:12+0000
1.506 km
极远距离
4.332265E-6 低风险 0.48
CDM_260904-004305-809306-396021
2026-09-04T
00:43:49+0000
1.688 km
极远距离
3.052031E-6 低风险 0.45
CDM_260904-215405-809306-396021
2026-09-04T
21:54:54+0000
2.423 km
极远距离
1.28122E-6 低风险 0.37
CDM_260904-052605-809306-396021
2026-09-04T
05:26:17+0000
2.518 km
极远距离
1.197562E-6 低风险 0.37
CDM_260903-230905-809306-396021
2026-09-03T
23:09:39+0000
2.956 km
极远距离
9.543788E-7 极低风险 0.35